Location: General Nathan Twining Observatory
(34.5931°N, 106.8201°W)
Time: 15:54:41
(UTC-06:00)

Cosmos 909 Rocket - Pass Details

Date: 20 September 2017
Orbit: 984 x 2095 km, 65.9° (Epoch: 18 October)

Event Time Altitude Azimuth Distance (km) Brightness Sun altitude
Rises 20:27:43 0° 331° (NNW) 4,718 8.2 -17.4°
Reaches altitude 10° 20:31:00 10° 331° (NNW) 3,570 7.5 -18.1°
Maximum altitude 20:39:28 86° 244° (WSW) 1,217 4.4 -19.8°
Enters shadow 20:44:51 18° 157° (SSE) 2,401 5.7 -20.8°
